This demonstration page uses our WeatherBlox Daily Observations layout. Learn more.

Left ArrowRight Arrow

39.95238, -75.16362

Hourly Observations for September 19, 2019

Temp ( °F °C ) Dew Point ( °F °C ) Humidity (%) Winds ( mph kmh ) Pressure ( in mb ) Visibility ( mi km ) Precip ( " mm )
12:54 am 00:54 Mostly Clear 58 14.4 47 8.3 67 67 NE 6 9 30.30 1026 10 16 0.00 0.00
1:54 am 01:54 Clear 56 13.3 46 7.8 70 70 NE 6 9 30.31 1026 10 16 0.00 0.00
2:54 am 02:54 Clear 57 13.9 45 7.2 64 64 NE 8 13 30.29 1026 10 16 0.00 0.00
3:54 am 03:54 Clear 56 13.3 45 7.2 67 67 ENE 7 11 30.31 1027 10 16 0.00 0.00
4:54 am 04:54 Clear 55 12.8 44 6.7 67 67 NE 9 15 30.32 1027 10 16 0.00 0.00
5:54 am 05:54 Clear 53 11.7 40 4.4 61 61 NE 7 11 30.32 1027 10 16 0.00 0.00
6:54 am 06:54 Sunny 53 11.7 41 5 64 64 NE 8 13 30.34 1027 10 16 0.00 0.00
7:54 am 07:54 Mostly Sunny 57 13.9 42 5.6 58 58 NE 9 15 30.35 1028 10 16 0.00 0.00
8:54 am 08:54 Mostly Sunny 59 15 42 5.6 54 54 NE 8 13 30.36 1028 10 16 0.00 0.00
9:54 am 09:54 Mostly Sunny 62 16.7 43 6.1 50 50 ENE 6 9 30.37 1029 10 16 0.00 0.00
10:54 am 10:54 Partly Cloudy 64 17.8 44 6.7 48 48 E 6 9 30.37 1028 10 16 0.00 0.00
11:54 am 11:54 Mostly Sunny 66 18.9 43 6.1 43 43 ESE 6 9 30.36 1028 10 16 0.00 0.00
12:54 pm 12:54 Mostly Sunny 68 20 43 6.1 40 40 VRB 5 7 30.34 1028 10 16 0.00 0.00
1:54 pm 13:54 Mostly Sunny 68 20 42 5.6 39 39 Calm 30.33 1027 10 16 0.00 0.00
2:54 pm 14:54 Mostly Sunny 70 21.1 41 5 35 35 NNE 6 9 30.32 1027 10 16 0.00 0.00
3:54 pm 15:54 Mostly Sunny 71 21.7 42 5.6 35 35 SSE 6 9 30.30 1026 10 16 0.00 0.00
4:54 pm 16:54 Mostly Sunny 71 21.7 42 5.6 35 35 VRB 6 9 30.30 1026 10 16 0.00 0.00
5:54 pm 17:54 Mostly Sunny 70 21.1 42 5.6 37 37 ESE 3 6 30.29 1026 10 16 0.00 0.00
6:54 pm 18:54 Mostly Sunny 68 20 42 5.6 39 39 SE 5 7 30.30 1026 10 16 0.00 0.00
7:54 pm 19:54 Mostly Clear 66 18.9 45 7.2 47 47 S 3 6 30.30 1026 10 16 0.00 0.00
8:54 pm 20:54 Clear 64 17.8 46 7.8 52 52 SSE 3 6 30.29 1026 10 16 0.00 0.00
9:54 pm 21:54 Clear 60 15.6 50 10 70 70 SSE 6 9 30.29 1026 10 16 0.00 0.00
10:54 pm 22:54 Clear 58 14.4 50 10 75 75 SSE 6 9 30.30 1026 10 16 0.00 0.00
11:54 pm 23:54 Mostly Clear 58 14.4 50 10 75 75 SW 6 9 30.30 1026 10 16 0.00 0.00

Powered by AerisWeather